Wetbulb
56.77 53.49 52.49 54.77 56.80 56.59 55.13 54.10 53.18 55.46 57.17 56.02 55.57 56.03 60.02 61.71 63.70 64.45 64.65 67.63 68.10 68.46 69.89 70.90 70.79 71.98 72.43 73.80 74.97 73.71 75.83 73.54 76.02 75.52 75.78 76.24 74.07 76.18 74.95 76.89 77.80 76.44 77.48 78.08
54.70 52.54 55.60 57.25 56.61 54.90 54.13 53.33 53.57 56.05 57.53 56.61 55.88 57.86 58.83 61.33 60.72 61.21 65.64 66.35 66.22 65.78 64.68 70.64 71.39 72.12 72.95 73.90 74.72 74.34 74.86 74.59 76.94 76.62 76.99 75.35 74.11 75.19 75.86 76.83 76.91 76.87 75.16 77.97
52.96 54.98 56.59 54.90 54.60 52.82 54.01 53.52 53.72 53.33 55.04 56.12 56.19 55.66 56.03 58.84 61.16 63.28 64.48 67.27 68.73 64.66 63.91 68.83 70.58 71.67 71.65 73.76 74.69 76.07 76.08 77.35 78.15 77.56 77.49 76.30 75.62 76.71 75.52 74.91 76.89 75.30 77.10 77.71
54.38 56.40 54.68 53.86 52.99 54.75 52.39 56.09 55.07 53.39 53.05 50.03 57.29 47.85 52.72 55.13 56.66 58.35 61.20 66.50 66.96 68.56 70.14 68.80 70.85 71.30 72.02 73.78 75.19 77.08 78.03 77.98 77.95 77.80 75.48 74.90 71.80 70.54 72.69 72.78 75.02 75.38 76.72 77.87
53.67 53.92 53.29 52.49 53.35 56.17 53.83 56.30 54.75 54.24 52.75 52.74 54.07 51.08 53.43 56.21 53.52 57.83 62.16 66.02 67.21 67.54 70.08 69.67 70.86 66.44 67.88 67.70 72.79 77.28 78.20 78.34 78.00 77.29 76.90 74.97 73.57 73.27 74.68 73.97 74.86 75.80 75.69 78.09
54.86 58.61 56.18 54.81 56.17 56.66 56.95 54.68 54.74 54.61 53.54 49.15 52.81 52.44 52.31 54.29 57.52 60.75 63.75 65.30 66.35 67.11 69.28 68.11 71.52 68.51 66.53 69.06 68.77 72.86 77.38 78.42 78.66 77.90 77.29 76.01 74.61 73.15 72.82 72.63 72.65 72.85 75.84 73.82
55.51 55.00 56.73 57.10 54.74 56.86 55.74 53.03 48.29 47.58 48.07 48.15 52.70 52.01 52.70 58.51 60.90 63.45 63.54 64.62 65.96 68.25 68.29 69.52 69.91 66.07 65.82 67.28 67.54 67.52 76.33 77.38 78.47 77.75 77.07 76.41 75.57 74.45 74.32 73.88 73.41 74.63 74.00 72.78
51.70 50.11 55.32 56.98 55.00 53.60 54.41 53.74 49.08 45.21 45.02 48.47 53.74 50.36 51.76 58.83 63.25 65.17 66.36 66.76 67.55 68.20 68.07 68.62 70.04 67.48 64.81 67.16 67.71 67.46 76.60 77.35 78.01 78.12 77.82 77.41 76.30 74.01 73.60 73.62 74.18 75.06 74.66 72.72
52.09 52.80 57.07 57.02 57.11 56.37 53.97 52.30 55.46 51.04 51.14 49.78 52.16 54.20 56.25 57.57 59.46 60.23 60.91 65.84 66.77 68.28 68.83 68.98 70.07 69.07 67.33 65.28 67.19 73.60 77.02 77.57 77.12 77.79 78.18 77.39 77.04 76.54 73.23 75.18 74.97 74.20 74.74 74.53
55.85 52.13 57.31 57.29 57.55 57.42 55.20 56.53 50.65 51.49 46.79 44.68 49.76 51.87 51.60 52.16 54.47 58.73 60.89 64.86 66.48 68.99 68.94 69.75 69.98 71.05 72.65 73.42 75.10 75.22 76.13 76.98 77.53 78.00 77.85 75.89 76.29 76.27 76.50 76.14 74.90 76.13 76.88 73.23
57.00 54.74 54.25 57.24 55.02 54.70 55.13 53.42 54.14 53.96 53.37 47.89 46.63 49.93 57.38 56.78 57.75 59.07 63.33 65.98 66.89 68.24 68.90 69.04 70.93 71.86 73.26 75.49 74.62 71.68 70.47 76.92 77.03 77.37 76.94 76.36 75.92 76.66 76.93 76.29 75.03 76.89 77.69 73.80
58.54 56.26 52.28 53.24 57.76 58.44 57.41 55.82 55.24 50.62 50.57 52.06 50.95 51.74 59.22 59.07 60.74 62.67 64.39 66.35 67.47 68.80 69.50 70.25 71.10 72.94 72.54 74.98 74.28 72.96 72.84 74.86 76.20 77.40 77.48 75.88 76.21 75.98 76.42 76.08 76.63 76.86 77.00 77.38
59.04 56.16 50.39 51.70 55.14 57.62 56.04 56.65 56.61 56.26 54.83 53.06 49.15 51.39 60.33 60.09 56.93 60.89 63.77 64.82 67.35 69.95 70.09 70.48 71.12 74.24 74.62 75.60 75.13 75.19 73.60 73.04 75.96 76.93 76.84 76.87 75.72 75.86 76.17 76.16 77.35 76.83 76.52 77.43
61.76 53.83 51.47 48.29 51.61 54.96 53.92 56.06 57.22 56.02 51.74 51.40 51.87 52.31 55.74 57.17 57.83 60.45 63.83 65.06 66.53 69.23 71.32 71.82 72.12 72.24 74.54 75.03 74.79 75.17 75.52 76.53 77.34 76.53 76.58 76.88 76.62 76.95 76.80 76.64 76.74 76.35 76.52 76.24
57.46 52.35 53.94 54.31 54.82 54.58 53.84 53.59 54.35 53.54 54.09 51.17 53.15 53.37 57.60 56.82 58.31 61.27 64.48 66.42 66.86 67.58 68.59 70.09 71.30 74.14 74.89 75.23 76.11 75.55 75.28 75.82 77.08 77.08 77.97 78.18 77.70 77.77 78.30 77.80 76.39 76.08 76.08 76.21
57.90 53.63 55.07 53.09 54.87 54.68 52.83 53.67 54.15 54.29 54.21 54.28 54.44 55.50 61.11 60.42 59.31 61.94 65.36 66.23 66.63 67.45 68.53 69.62 70.67 72.41 74.24 75.84 76.30 76.85 77.43 76.96 77.10 76.75 77.13 79.16 78.99 78.04 77.59 75.28 75.47 75.92 73.82 73.67
56.09 54.50 53.42 50.02 53.92 53.34 50.11 53.87 54.84 55.31 56.67 56.65 53.40 60.32 63.72 61.89 62.95 64.60 65.06 65.62 66.23 67.25 68.52 69.02 69.89 71.58 73.39 75.48 77.76 77.34 78.13 78.62 77.52 77.16 77.98 78.02 78.15 78.36 78.00 78.01 77.11 76.77 75.27 74.44
55.79 55.48 54.27 50.42 52.67 45.57 53.70 57.91 58.17 56.76 56.59 58.64 60.77 62.71 63.96 64.25 64.54 64.90 66.04 65.45 65.41 66.55 67.59 69.19 69.59 70.31 71.32 72.42 74.50 75.00 78.66 78.93 78.30 77.59 77.60 78.01 78.59 78.42 78.76 78.58 77.25 77.10 76.45 75.65
57.68 55.16 51.62 49.04 48.53 51.73 53.31 57.89 56.80 55.35 55.44 60.64 61.06 62.81 63.50 64.56 64.10 63.14 64.93 65.84 65.84 66.45 67.05 67.81 68.83 70.09 73.26 73.98 74.71 75.91 76.11 77.94 77.41 77.15 77.72 78.17 78.63 78.49 78.32 77.77 77.80 77.42 76.85 76.33
57.67 57.31 53.20 51.61 47.43 45.96 55.51 58.79 59.86 57.94 51.31 63.06 63.39 62.98 62.69 63.20 58.42 61.24 64.98 65.36 65.43 65.99 66.49 66.19 67.38 68.60 69.90 71.23 71.93 73.19 73.68 75.86 75.70 77.14 77.12 78.25 77.68 77.90 78.13 78.54 78.21 78.24 78.03 77.49
54.31 55.06 51.46 51.22 49.51 52.07 59.33 60.14 60.72 50.72 55.10 63.08 63.27 63.00 62.60 61.22 62.68 64.87 65.49 65.26 65.12 65.22 65.37 65.89 66.75 66.92 69.07 71.04 72.68 72.06 73.08 73.25 75.28 76.33 78.05 77.97 77.20 77.48 78.38 79.03 78.97 78.31 77.76 77.08
53.20 52.21 51.88 53.05 50.72 48.36 60.50 60.25 56.55 60.88 63.21 62.55 62.45 62.33 61.62 62.34 63.25 63.67 64.05 64.02 64.23 64.25 64.69 65.21 66.39 67.22 67.71 69.02 70.37 71.40 72.34 74.30 74.76 75.29 75.56 77.08 77.17 76.76 76.71 77.46 77.49 78.03 77.78 76.05
52.15 55.44 53.32 54.36 53.72 60.95 60.57 60.86 62.06 62.26 61.44 61.74 61.33 61.42 61.10 60.18 60.50 61.88 62.49 63.25 63.68 64.03 65.03 65.02 66.65 66.85 68.31 69.61 70.46 69.25 72.02 73.91 74.20 73.95 74.06 74.93 76.27 76.40 76.56 75.09 76.53 76.56 76.75 76.22
57.43 59.32 55.43 55.36 57.46 58.07 58.67 59.73 60.12 60.09 59.42 60.06 60.68 60.92 60.78 59.32 59.55 59.89 61.67 62.85 64.07 64.85 64.60 65.27 66.06 65.85 66.13 68.57 68.92 69.88 70.15 71.73 72.69 72.89 72.79 73.51 74.91 75.36 75.57 75.54 75.24 75.25 74.64 75.11
55.96 56.91 55.46 54.95 57.03 58.13 58.70 59.75 60.20 60.17 60.31 59.84 60.53 60.28 59.71 59.70 59.89 60.75 61.89 63.69 64.27 64.58 65.47 65.73 65.55 65.88 66.06 67.71 68.12 68.57 69.17 70.05 69.45 70.76 71.71 72.32 71.91 74.90 72.73 64.02 62.75 66.49 59.89 59.19
56.67 55.66 52.97 52.20 57.63 57.26 57.90 59.89 60.68 59.42 59.13 59.77 59.52 59.47 61.08 60.86 60.28 61.08 61.76 63.00 64.07 64.36 65.51 65.21 66.00 65.94 65.90 66.54 67.02 68.04 68.98 69.39 68.54 68.08 69.15 69.77 70.20 73.07 73.47 70.15 63.86 54.21 55.00 62.16
MSLP
1002.52 1002.34 1001.48 1000.53 1000.04 1000.04 1000.41 1000.22 999.91 999.47 999.49 1000.15 1000.89 1001.38 1001.82 1003.50 1002.78 1001.08 1001.07 1001.47 1001.98 1003.02 1002.93 1004.28 1004.74 1005.40 1006.60 1007.51 1008.47 1009.28 1010.36 1011.55 1012.11 1012.80 1013.56 1014.11 1014.25 1014.32 1014.15 1013.71 1013.60 1014.01 1013.96 1014.07
1001.75 1000.98 1000.50 1000.10 999.97 1000.47 1000.37 1000.10 999.49 998.76 999.37 1000.04 1000.87 1003.10 1003.99 1005.06 1004.69 1004.81 1001.42 1001.36 1002.48 1005.08 1005.17 1004.85 1004.63 1005.05 1006.26 1007.11 1008.21 1008.91 1009.85 1010.81 1011.54 1012.00 1012.53 1013.55 1013.97 1014.26 1014.08 1013.67 1013.63 1013.72 1013.85 1013.92
1000.76 999.89 999.83 1000.11 1000.00 1000.33 1000.04 999.49 998.82 998.90 999.37 999.97 1000.73 1004.38 1005.72 1006.71 1006.54 1004.54 1002.90 1001.43 1002.16 1004.24 1005.56 1004.98 1004.90 1004.91 1005.82 1006.74 1007.91 1008.55 1009.34 1010.23 1010.98 1011.60 1012.33 1013.24 1013.87 1014.13 1014.17 1013.85 1013.86 1013.73 1013.62 1013.68
1000.35 1000.13 999.93 1000.14 1000.03 999.79 999.19 998.84 998.96 999.04 999.38 999.71 1000.30 1005.16 1007.46 1008.12 1006.76 1005.13 1003.52 1001.63 1001.33 1002.13 1003.48 1003.93 1004.25 1004.75 1005.82 1006.07 1007.04 1007.92 1008.75 1009.74 1010.48 1011.62 1012.24 1012.86 1013.31 1013.63 1013.62 1013.43 1013.56 1013.53 1013.42 1013.51
999.86 999.70 999.72 999.90 999.59 999.39 999.22 999.09 999.10 999.01 999.15 999.46 1000.52 1003.57 1006.04 1007.37 1006.92 1004.42 1002.71 1001.21 1000.31 1000.57 1001.58 1003.63 1003.56 1005.61 1007.55 1007.97 1007.94 1007.54 1008.06 1009.28 1010.17 1011.13 1011.84 1012.31 1012.94 1013.08 1012.82 1012.78 1012.80 1012.82 1013.21 1013.31
1000.00 999.61 999.51 999.48 999.33 999.21 999.17 999.07 998.78 998.50 998.48 999.16 1001.34 1002.90 1005.03 1005.03 1003.38 1002.33 1000.70 1000.14 999.71 999.84 1001.49 1002.82 1003.05 1006.32 1006.70 1009.25 1010.12 1007.90 1007.71 1008.87 1009.89 1010.56 1011.36 1011.91 1012.28 1012.53 1012.52 1013.56 1012.97 1013.17 1012.97 1013.45
999.22 999.15 999.15 999.45 999.15 998.85 998.81 998.41 997.77 997.80 997.80 1000.11 1000.69 1002.92 1006.27 1003.86 1003.10 1001.34 1000.27 1000.16 999.89 999.74 999.93 1000.47 1002.74 1006.30 1009.05 1007.85 1007.88 1007.15 1007.82 1008.36 1009.56 1010.11 1011.01 1011.61 1011.94 1012.24 1012.19 1013.06 1013.08 1012.66 1012.62 1013.24
998.56 998.60 998.29 998.67 998.97 998.62 998.16 997.79 997.54 997.18 997.49 998.88 1001.33 1003.35 1006.50 1007.26 1003.62 1001.62 999.88 999.54 999.75 999.90 999.83 1000.39 1002.98 1005.29 1008.42 1007.41 1006.97 1008.59 1007.87 1008.12 1009.43 1009.72 1010.43 1011.10 1011.61 1011.98 1012.10 1012.05 1012.13 1012.08 1012.36 1012.59
999.45 998.32 997.82 997.87 998.30 998.46 997.75 997.43 997.31 997.28 997.31 998.96 1001.21 1004.69 1007.18 1007.29 1004.29 1002.33 1001.50 999.32 999.68 1000.25 1000.50 1000.96 1001.47 1005.22 1006.06 1006.30 1008.07 1007.57 1007.29 1008.34 1009.03 1009.43 1010.24 1010.57 1011.12 1011.64 1011.84 1011.98 1012.20 1012.19 1012.19 1012.30
998.72 998.30 998.14 997.77 998.21 998.17 998.19 998.00 997.71 997.45 997.91 999.24 1000.16 1002.50 1006.12 1007.24 1005.71 1003.17 1002.01 1000.07 1000.09 1000.63 1001.23 1001.46 1001.70 1002.03 1004.16 1005.36 1005.67 1006.22 1006.63 1007.66 1008.68 1008.87 1009.88 1010.32 1010.80 1011.18 1011.48 1011.63 1011.78 1011.61 1011.64 1012.10
999.52 999.03 998.64 998.14 997.95 997.97 997.53 997.68 998.66 998.64 998.40 998.69 1000.04 1002.57 1004.73 1005.40 1003.49 1003.10 1000.93 1000.61 1000.59 1000.74 1001.48 1001.77 1001.86 1002.35 1003.21 1003.98 1005.47 1006.69 1007.79 1008.16 1008.61 1008.66 1009.19 1009.87 1009.98 1010.47 1010.98 1011.18 1011.33 1011.20 1011.48 1012.02
999.74 999.38 998.69 998.32 998.21 998.58 998.12 997.49 997.93 998.08 997.94 998.32 1000.21 1003.50 1003.85 1004.46 1004.32 1003.30 1001.97 1001.43 1001.53 1001.32 1001.52 1001.89 1002.09 1002.30 1003.19 1004.18 1005.94 1006.94 1007.28 1007.20 1008.05 1008.12 1008.66 1009.36 1009.78 1010.30 1010.63 1010.69 1010.76 1010.91 1011.13 1011.80
1001.23 1000.09 999.59 998.57 998.69 999.07 998.69 998.91 998.74 998.12 997.43 998.00 999.60 1003.08 1004.27 1004.09 1005.30 1006.01 1003.86 1002.32 1001.96 1001.69 1001.90 1002.16 1002.40 1002.68 1003.25 1004.22 1005.53 1006.10 1006.81 1007.10 1007.19 1007.77 1008.12 1008.47 1009.18 1009.66 1010.18 1010.33 1010.76 1011.07 1011.00 1011.12
1002.40 1001.73 1001.15 1000.30 999.76 999.64 999.34 999.14 998.78 998.29 997.82 998.13 999.46 1002.35 1004.18 1006.15 1006.32 1006.77 1005.13 1002.88 1002.00 1001.93 1002.17 1002.44 1002.80 1003.29 1003.67 1004.64 1005.36 1006.04 1006.55 1006.84 1007.13 1007.68 1007.75 1008.07 1008.71 1008.90 1009.10 1009.58 1010.30 1010.73 1011.08 1011.23
1002.25 1001.84 1001.54 1000.95 1000.45 1000.08 999.54 998.93 998.64 998.41 998.55 998.91 999.50 1000.28 1002.41 1005.06 1005.44 1005.52 1005.16 1003.62 1002.81 1002.64 1002.70 1003.13 1003.29 1003.55 1004.21 1004.60 1005.46 1006.02 1006.55 1007.09 1007.43 1007.52 1007.56 1007.67 1008.17 1008.32 1008.91 1009.31 1010.00 1010.57 1010.94 1011.25
1001.76 1001.78 1001.79 1001.45 1001.08 1000.27 999.43 998.92 998.60 998.43 998.43 998.90 999.48 1000.66 1002.67 1004.26 1005.09 1005.78 1004.51 1004.05 1003.73 1003.35 1003.67 1003.96 1004.02 1004.13 1004.13 1004.50 1005.02 1005.42 1005.85 1006.53 1006.98 1007.27 1007.41 1007.48 1007.75 1008.12 1008.53 1009.03 1009.41 1009.90 1010.48 1010.83
1002.10 1002.26 1002.42 1001.89 1001.52 1000.74 999.72 998.51 998.12 998.14 998.44 999.09 999.70 1000.96 1002.02 1003.86 1004.73 1004.89 1005.18 1004.95 1004.37 1004.20 1004.62 1004.85 1004.81 1004.73 1004.89 1004.81 1004.73 1005.05 1005.45 1005.91 1006.40 1006.88 1007.20 1007.51 1007.74 1008.04 1008.25 1008.58 1009.14 1009.52 1009.99 1010.38
1001.83 1002.36 1002.81 1002.58 1002.11 1000.95 999.65 998.96 999.11 999.41 999.76 1000.22 1000.90 1001.63 1002.58 1003.64 1004.61 1005.33 1005.48 1005.47 1005.20 1005.14 1005.30 1005.33 1005.40 1005.31 1005.45 1005.35 1005.33 1005.41 1005.11 1005.40 1005.93 1006.46 1006.93 1007.27 1007.55 1007.82 1008.02 1008.21 1008.59 1008.98 1009.40 1009.78
1001.83 1002.39 1002.69 1002.77 1002.23 1001.24 1000.24 1000.45 1000.48 1000.63 1000.92 1001.38 1002.18 1002.54 1003.13 1003.72 1004.62 1005.48 1005.93 1006.04 1005.99 1005.84 1005.85 1005.87 1005.70 1005.35 1005.39 1005.54 1005.42 1005.53 1005.42 1005.34 1005.71 1006.19 1006.48 1006.70 1006.84 1007.10 1007.49 1007.75 1007.98 1008.34 1008.75 1009.14
1002.17 1002.67 1003.28 1003.27 1002.69 1001.78 1001.24 1001.70 1001.95 1001.95 1002.23 1003.01 1003.44 1003.70 1004.09 1004.49 1004.77 1006.65 1006.93 1006.89 1006.55 1006.46 1006.56 1006.54 1006.24 1005.76 1005.85 1005.98 1005.91 1005.88 1005.63 1005.49 1005.88 1006.12 1006.34 1006.49 1006.81 1007.02 1007.01 1007.14 1007.43 1007.71 1008.06 1008.35
1002.19 1002.79 1003.21 1002.95 1002.81 1002.44 1002.58 1002.67 1002.84 1003.05 1004.53 1004.64 1004.89 1005.19 1005.51 1005.87 1006.67 1007.16 1007.56 1007.17 1007.14 1007.17 1007.03 1006.97 1006.83 1006.70 1006.76 1006.58 1006.43 1006.34 1006.16 1006.04 1006.28 1006.20 1005.98 1005.97 1006.03 1006.16 1006.40 1006.65 1006.83 1007.17 1007.50 1007.84
1002.76 1002.82 1002.84 1002.77 1002.81 1003.26 1004.22 1003.77 1003.93 1005.12 1005.13 1005.51 1005.70 1006.09 1006.36 1006.53 1006.52 1006.67 1006.86 1006.94 1007.07 1007.25 1007.28 1007.30 1007.21 1007.17 1007.17 1007.06 1006.93 1006.77 1006.63 1006.66 1006.59 1006.49 1006.25 1006.10 1005.94 1005.80 1005.73 1006.11 1006.30 1006.74 1007.28 1007.65
1003.07 1003.47 1003.85 1004.30 1004.45 1004.77 1004.47 1004.90 1005.42 1005.63 1005.92 1005.91 1006.13 1006.47 1006.62 1006.77 1006.81 1006.78 1006.77 1006.76 1006.77 1006.92 1007.09 1007.21 1007.26 1007.22 1007.29 1007.30 1007.28 1007.16 1006.98 1006.82 1006.71 1006.64 1006.36 1006.05 1005.96 1005.80 1005.71 1005.74 1006.07 1006.59 1006.88 1007.29
1003.38 1004.12 1004.03 1004.68 1004.70 1004.86 1004.99 1005.26 1005.55 1005.87 1006.32 1006.41 1006.34 1006.39 1006.62 1006.91 1006.98 1006.87 1006.73 1006.61 1006.62 1006.71 1006.78 1006.85 1006.96 1007.01 1007.02 1007.14 1007.24 1007.25 1007.12 1006.89 1006.58 1006.41 1006.28 1005.91 1005.61 1005.48 1005.55 1005.73 1005.66 1006.54 1006.71 1006.83
1004.61 1004.70 1004.98 1005.26 1005.43 1005.44 1005.49 1005.84 1006.16 1006.46 1006.82 1006.93 1006.69 1006.74 1006.78 1006.80 1006.74 1006.74 1006.73 1006.80 1006.86 1006.91 1006.90 1006.87 1006.84 1006.87 1006.90 1006.94 1006.97 1006.97 1006.87 1006.76 1006.50 1006.11 1005.94 1005.73 1005.59 1005.46 1005.94 1006.46 1007.03 1006.55 1007.78 1008.49
1005.20 1005.03 1005.27 1005.34 1006.20 1006.53 1006.67 1006.67 1006.76 1006.76 1006.81 1006.96 1006.74 1006.65 1006.48 1006.61 1006.77 1006.87 1006.85 1006.87 1006.86 1006.82 1006.83 1006.80 1006.72 1006.64 1006.63 1006.67 1006.59 1006.54 1006.61 1006.54 1006.40 1005.99 1005.56 1005.15 1004.84 1004.60 1005.17 1006.20 1007.35 1007.62 1004.98 1005.92
Wind_Speed
15 11 14 16 14 7 8 12 10 13 1 7 10 12 12 35 32 9 12 18 19 20 17 15 10 14 17 17 16 10 8 7 9 8 6 4 4 3 3 4 4 5 6 5
12 13 13 15 4 6 10 11 16 13 5 8 11 15 18 29 33 25 10 9 18 10 5 13 15 15 18 17 18 16 14 16 10 7 6 5 6 4 3 5 3 5 4 4
14 17 2 9 5 8 13 15 14 10 12 14 15 15 16 15 29 24 27 11 20 23 24 18 17 18 12 15 16 15 14 15 11 10 5 5 4 2 3 3 3 5 6 6
9 14 9 9 11 12 15 8 11 12 12 11 7 5 1 6 15 22 26 17 12 24 31 20 26 20 20 18 17 18 16 14 12 9 6 10 8 6 5 6 6 5 6 5
12 8 10 9 13 13 12 14 15 15 15 16 5 7 7 8 11 18 24 20 13 10 25 19 23 13 6 11 3 15 16 14 10 11 10 10 9 6 5 7 10 7 6 6
16 7 9 12 11 11 12 13 18 19 16 12 9 6 5 7 9 3 6 5 7 6 26 32 22 17 15 11 20 9 17 13 11 12 12 11 11 8 7 4 5 5 6 1
18 16 13 8 12 12 13 17 14 8 2 5 9 7 10 5 10 5 5 5 6 8 8 9 23 24 12 24 23 1 13 15 13 13 12 9 8 9 6 6 8 5 7 7
8 5 13 12 12 14 14 15 9 16 11 9 5 6 6 16 11 1 13 8 4 5 5 7 24 27 14 7 15 10 13 13 13 12 12 10 10 6 5 3 4 4 5 4
9 12 7 9 8 13 13 12 13 13 11 13 5 16 13 7 23 24 14 13 8 3 3 2 3 27 22 31 17 17 14 12 11 12 10 9 8 8 9 9 7 7 7 7
13 5 7 9 10 11 12 13 12 8 6 5 1 7 11 11 16 24 17 13 9 7 3 3 1 3 22 24 14 13 8 14 11 10 10 8 10 10 9 7 8 9 5 5
11 12 3 6 9 12 8 14 10 15 14 7 6 8 16 22 21 20 10 12 8 8 5 0 3 4 8 13 15 9 2 7 9 11 12 11 10 11 9 9 8 7 5 5
13 9 12 16 14 20 23 13 8 9 14 7 5 4 7 12 26 17 11 9 8 8 7 6 3 5 4 10 15 13 8 8 10 9 10 11 10 9 11 9 8 8 6 5
12 7 9 12 10 17 17 16 18 23 17 13 6 4 7 7 28 38 12 5 8 6 6 6 3 4 2 9 11 9 9 10 10 10 11 10 12 12 10 10 7 8 7 6
5 12 15 14 17 11 11 12 16 20 14 16 14 11 14 11 12 17 18 2 8 7 6 7 6 2 2 9 10 9 8 7 5 8 8 8 9 10 11 11 9 9 8 8
5 12 13 16 18 19 20 19 17 18 16 17 19 19 17 16 14 21 18 3 8 7 9 6 9 7 4 2 10 10 10 8 7 7 7 8 8 7 7 6 9 9 9 8
6 11 12 16 17 19 19 18 18 17 16 15 16 7 15 16 16 16 3 6 8 10 10 8 7 7 3 5 5 7 8 11 10 8 7 5 8 8 8 6 7 8 7 7
10 10 12 15 16 16 16 13 12 10 8 13 12 17 18 22 14 9 5 7 9 11 9 8 7 7 4 6 2 5 7 9 10 10 8 8 8 8 9 9 8 8 10 11
12 10 9 12 12 16 13 6 6 7 8 11 11 11 11 13 11 8 8 8 10 10 9 8 6 6 6 6 7 9 5 7 8 11 10 9 9 10 9 9 10 10 9 10
9 9 9 10 12 16 18 13 11 8 8 11 10 9 7 8 11 9 7 6 7 8 8 8 8 7 3 5 4 4 6 4 7 8 8 9 10 11 11 11 11 11 10 10
6 7 7 10 14 14 6 9 4 4 3 12 11 10 9 8 3 5 11 13 11 8 7 8 9 9 9 8 9 7 7 7 6 6 8 8 9 10 11 11 11 10 9 10
7 8 9 9 12 11 11 8 7 8 5 7 7 10 10 8 5 4 4 5 3 7 8 7 7 8 8 9 6 6 7 8 8 8 6 6 7 9 11 11 10 10 10 9
11 8 9 10 13 6 11 9 5 5 4 6 7 8 6 7 6 2 4 3 4 5 7 9 7 6 7 8 8 8 7 7 8 9 8 7 6 7 9 11 11 11 10 11
5 5 7 5 7 3 2 6 8 9 8 7 1 4 7 10 11 11 10 9 8 8 7 8 7 8 7 7 7 8 7 7 7 7 9 8 8 7 9 10 11 9 11 9
2 10 5 5 6 12 7 4 4 4 9 11 11 11 10 11 14 14 12 9 8 8 9 8 8 9 9 7 8 8 9 9 8 7 9 9 8 6 7 9 9 9 11 10
9 10 6 8 11 10 8 12 10 8 7 14 12 11 13 14 13 12 10 10 9 9 9 9 8 8 9 9 9 10 10 9 11 9 8 7 8 5 1 4 4 2 7 4
10 9 6 7 8 5 8 12 14 13 10 14 12 14 11 13 14 15 12 11 9 10 9 10 10 10 9 10 11 9 10 10 11 11 8 8 7 5 3 4 4 13 6 11
Wind_Direction
215 233 236 245 243 327 335 296 294 268 207 312 290 282 359 7 350 216 239 182 186 179 173 178 188 177 165 173 164 147 131 126 163 158 163 142 189 194 281 257 222 179 233 171
247 225 243 268 314 312 275 258 267 267 176 250 274 38 22 13 334 316 244 245 142 225 32 236 195 176 168 174 169 170 158 172 165 176 166 167 172 201 235 262 192 191 223 204
241 268 137 256 249 243 248 254 274 347 325 284 255 37 36 15 315 325 331 260 165 161 204 196 212 184 173 174 165 161 161 167 171 175 134 141 146 180 222 270 251 231 218 207
265 255 248 263 251 254 265 333 320 300 294 292 259 123 56 187 23 306 292 267 222 178 188 174 208 192 186 171 172 164 165 171 173 161 178 165 175 178 201 205 222 219 198 229
251 222 250 241 249 255 268 314 298 289 277 268 336 102 261 243 199 247 262 229 228 267 171 187 187 71 348 7 19 171 165 165 170 171 186 183 178 203 188 211 212 171 186 198
266 295 257 239 239 249 269 284 270 262 262 254 0 291 200 233 236 223 45 348 327 283 147 182 190 129 98 336 279 273 162 159 178 177 190 178 185 204 220 190 275 187 164 2
231 234 225 237 275 260 259 260 279 291 267 269 230 255 45 256 260 122 71 50 333 340 298 205 151 115 136 193 236 29 171 159 180 178 181 190 190 206 238 159 199 204 171 189
246 234 211 190 226 279 286 292 288 303 326 229 184 156 297 322 335 154 120 99 71 335 11 327 125 137 160 53 244 250 165 150 180 186 181 188 181 194 218 201 248 218 227 200
65 310 135 199 211 234 280 291 317 296 318 25 106 101 62 308 339 294 317 90 74 55 19 342 42 151 133 190 227 199 151 162 185 187 177 178 179 198 194 195 203 223 215 232
315 265 242 255 204 240 265 305 309 313 317 327 199 132 147 126 232 264 288 77 74 87 80 334 205 312 158 169 139 150 160 162 188 186 173 186 189 203 206 191 221 235 203 224
308 307 256 227 222 316 253 238 10 315 315 289 342 64 159 189 205 229 82 78 63 101 109 282 279 134 124 132 145 147 57 154 193 205 179 192 187 197 204 204 209 220 197 183
328 312 306 313 158 216 269 344 266 249 274 287 353 81 347 14 359 6 83 65 50 55 86 133 284 133 203 138 140 152 190 172 202 223 170 190 181 199 202 224 199 195 216 230
0 313 315 298 30 341 342 332 308 299 297 298 275 120 276 28 58 321 334 46 104 125 104 101 88 99 170 109 133 153 145 209 210 217 194 190 178 189 203 208 191 209 208 222
329 283 280 288 309 306 266 252 262 281 307 322 340 135 214 97 129 214 286 109 94 86 68 66 120 104 335 125 142 152 173 200 186 224 197 205 192 197 205 184 198 201 198 217
262 271 285 297 310 311 306 303 298 294 293 299 305 309 128 128 129 238 254 136 80 66 71 44 19 127 151 238 160 166 173 187 211 229 221 197 184 199 199 209 192 214 192 208
278 283 291 288 285 281 282 276 275 278 281 286 297 7 132 159 183 240 138 107 94 79 52 48 35 20 19 171 190 179 186 182 196 221 225 218 184 190 195 207 189 188 175 218
282 295 303 288 304 307 289 278 280 290 331 349 322 111 147 158 162 94 97 69 67 71 67 47 28 36 15 335 193 202 193 185 190 198 211 215 221 201 202 195 198 198 188 201
268 262 267 284 290 276 281 329 2 329 323 0 27 65 68 88 105 84 51 56 56 53 50 49 30 29 1 348 348 341 220 194 197 203 210 222 217 216 210 205 199 202 200 202
272 271 275 277 268 277 276 41 24 15 345 41 5 44 79 130 121 110 67 62 46 40 37 22 12 357 52 12 12 320 315 285 207 216 218 223 217 212 210 213 211 204 200 203
249 292 252 277 291 290 29 82 29 3 248 35 17 12 11 359 6 57 6 8 10 23 17 14 3 354 28 8 4 352 319 302 292 235 228 222 230 231 226 217 215 209 208 209
234 215 261 268 260 268 37 16 337 261 40 47 14 25 31 36 56 120 197 260 16 342 343 355 357 2 2 351 2 341 333 336 5 357 333 231 221 223 230 227 214 210 207 208
290 288 277 258 269 254 17 321 354 53 86 34 28 32 2 340 323 259 254 262 289 297 314 323 330 338 341 339 350 340 343 353 337 332 326 323 269 232 230 224 226 213 207 209
255 272 300 321 10 182 132 64 27 6 344 334 325 301 316 317 313 308 302 297 288 288 283 281 290 302 309 325 332 319 325 321 313 316 306 294 293 274 251 245 223 216 211 204
19 14 273 269 302 327 343 348 297 334 348 326 307 309 318 307 299 300 300 299 305 302 301 288 281 289 296 299 302 307 310 309 300 297 297 294 290 287 261 258 237 221 213 208
304 332 306 292 277 313 300 2 11 348 329 305 300 313 308 296 290 295 308 319 319 313 305 296 284 276 284 291 289 296 299 300 298 292 289 296 291 269 11 69 346 72 66 65
285 291 293 315 348 343 311 323 318 310 317 300 304 282 290 323 317 310 300 296 294 291 291 292 293 287 283 287 288 290 292 294 295 289 277 271 274 238 195 159 131 16 133 120